Regional Weather Roundup
Issued by NWS

Home | Current Version | Previous Version | Graphics & Text | Print | Product List | Glossary On
Versions: 1 2 3 4 5 6 7 8 9 10 11 12 13 14 15 16 17 18 19 20 21 22 23 24 25 26 27 28 29 30 31 32 33 34 35 36 37 38 39 40 41 42 43 44 45 46 47 48 49 50
419
ASUS43 KLMK 131902
RWRKY
KENTUCKY REGIONAL WEATHER ROUNDUP
NATIONAL WEATHER SERVICE LOUISVILLE KY
200 PM EST SAT FEB 13 2016

NOTE "FAIR" INDICATES FEW OR NO CLOUDS BELOW 12,000 FEET
WITH NO SIGNIFICANT WEATHER AND/OR OBSTRUCTIONS TO VISIBILITY.

KYZ001>023-026-027-061>063-070>075-132000-
WESTERN AND SOUTH CENTRAL KENTUCKY

CITY           SKY/WX    TMP DP  RH WIND       PRES   REMARKS
PADUCAH        SUNNY     28   1  31 NE9       30.57F WCI  19
HENDERSON      MOSUNNY   21   7  53 N7        30.59F WCI  13
OWENSBORO      SUNNY     23   2  40 N12       30.58F WCI  12
HOPKINSVILLE   SUNNY     25   2  36 NE3       30.54F
BOWLING GREEN  SUNNY     28   4  35 VRB5      30.54F WCI  23
GLASGOW        NOT AVBL
$$

KYZ024-025-028>034-038-045-046-053-132000-
NORTH CENTRAL KENTUCKY

CITY           SKY/WX    TMP DP  RH WIND       PRES   REMARKS
LOUISVILLE/SDF MOSUNNY   26   0  32 VRB3      30.54F
LOUISVILLE/LOU SUNNY     22   1  40 CALM      30.54F
FORT KNOX      SUNNY     24   1  37 N5        30.50F WCI  18
$$

KYZ035>037-039>044-047>052-055>060-089>105-132000-
NORTHEAST KENTUCKY

CITY           SKY/WX    TMP DP  RH WIND       PRES   REMARKS
LEXINGTON      MOSUNNY   22   3  44 N13       30.49F WCI  10
COVINGTON      MOSUNNY   18   2  49 VRB6      30.51F WCI  10
FRANKFORT      SUNNY     22  -3  33 N8        30.50F WCI  12
$$

KYZ054-064>069-076>088-106>120-132000-
SOUTHEAST KENTUCKY

CITY           SKY/WX    TMP DP  RH WIND       PRES   REMARKS
JACKSON        MOSUNNY   21   4  47 MISG      30.42F
LONDON         SUNNY     23   5  46 N12       30.44F WCI  12
SOMERSET       NOT AVBL
MIDDLESBORO    SUNNY     26   5  41 NW14G22   30.42F WCI  14
MONTICELLO     CLEAR     26   8  46 N12G20    30.49F WCI  16
$$





USA.gov is the U.S. government's official web portal to all federal, state and local government web resources and services.